Location: Poughquag
(41.6090°N, 73.6820°W)
Time: 03:38:51
(UTC-04:00)

S-56A Canister/Altair - Pass Details

Date: 04 June 2020
Orbit: 633 x 2499 km, 38.9° (Epoch: 06 July)

Event Time Altitude Azimuth Distance (km) Brightness Sun altitude
Rises 07:06:00 0° 271° (W) 3,479 10.3 17.0°
Reaches altitude 10° 07:08:11 10° 269° (W) 2,707 9.8 17.4°
Maximum altitude 07:14:42 71° 186° (S) 1,331 9.0 18.6°
Drops below altitude 10° 07:24:49 10° 105° (ESE) 4,082 12.5 20.4°
Sets 07:28:48 0° 104° (ESE) 5,360 12.9 21.2°
